Regional Weather Roundup
Issued by NWS

Home | Current Version | Previous Version | Graphics & Text | Print | Product List | Glossary On
Versions: 1 2 3 4 5 6 7 8 9 10 11 12 13 14 15 16 17 18 19 20 21 22 23 24 25 26 27 28 29 30 31 32 33 34 35 36 37 38 39 40 41 42 43 44 45 46 47 48 49 50
000
ASUS43 KDTX 290001
RWRMI
MICHIGAN HOURLY REGIONAL WEATHER ROUNDUP
NATIONAL WEATHER SERVICE DETROIT/PONTIAC MI
800 PM EDT THU APR 28 2016

NOTE: "FAIR" INDICATES FEW OR NO CLOUDS BELOW 12,000 FEET WITH NO
SIGNIFICANT WEATHER AND/OR OBSTRUCTION TO VISIBILITY.

MIZ047>049-052>055-059>063-066>070-074>076-081>083-290100-
SOUTHEAST LOWER MICHIGAN

CITY           SKY/WX    TMP DP  RH WIND       PRES   REMARKS
ADRIAN         CLOUDY    47  35  63 E13       29.97S
6HR MIN TEMP:  46; 6HR MAX TEMP:  48;

ALMA           CLOUDY    40  35  81 NE13G18   30.03S WCI  33
6HR MIN TEMP:  40; 6HR MAX TEMP:  43;

ANN ARBOR      CLOUDY    48  32  53 E8        29.98R
BAD AXE        CLOUDY    39  31  71 NE7       30.06S WCI  34
CARO           CLOUDY    43  31  63 NE8       30.03R
DETROIT CITY   CLOUDY    49  29  46 NE12      29.99S
6HR MIN TEMP:  45; 6HR MAX TEMP:  49; 6HR PCP: TRACE;

DETROIT        CLOUDY    49  32  52 NE8       29.99S
6HR MIN TEMP:  47; 6HR MAX TEMP:  50; 6HR PCP: TRACE;

FLINT          CLOUDY    49  28  44 E13       30.00S
6HR MIN TEMP:  48; 6HR MAX TEMP:  51; 6HR PCP:  0.01;

GROSSE ILE     CLOUDY    48  34  57 E6        29.96F
HILLSDALE      CLOUDY    46  37  70 NE7       29.96R
6HR MIN TEMP:  46; 6HR MAX TEMP:  48;

HOWELL         CLOUDY    47  32  55 NE7       29.98R

CITY           SKY/WX    TMP DP  RH WIND       PRES   REMARKS
JACKSON        CLOUDY    45  34  65 E9        29.98R
6HR MIN TEMP:  43; 6HR MAX TEMP:  45; 6HR PCP: TRACE;

LAMBERTVILLE   CLOUDY    48  36  63 E9        29.98R
6HR MIN TEMP:  47; 6HR MAX TEMP:  49;

LANSING        CLOUDY    45  36  70 NE6       30.00R
6HR MIN TEMP:  42; 6HR MAX TEMP:  45; 6HR PCP:  0.10;

LAPEER         CLOUDY    46  26  47 E8        30.01S
6HR MIN TEMP:  46; 6HR MAX TEMP:  48;

MASON          CLOUDY    45  35  68 NE7       29.98R
MONROE         CLOUDY    47  35  62 NE8       29.98R
6HR MIN TEMP:  44; 6HR MAX TEMP:  47; 6HR PCP:  0.02;

MT. CLEMENS    CLOUDY    47  29  48 N9        29.99R
6HR MIN TEMP:  46; 6HR MAX TEMP:  51; 6HR PCP:  0.01;

PONTIAC        CLOUDY    47  28  47 NE9       29.97F
6HR MIN TEMP:  45; 6HR MAX TEMP:  50; 6HR PCP:  0.01;

PORT HOPE        N/A     40  33  76 NE14      30.05S WCI  32
6HR MIN TEMP:  39; 6HR MAX TEMP:  41;

PORT HURON     CLOUDY    45  30  57 N8        30.01S
TRI CITIES     CLOUDY    43  35  73 NE14      30.04S
6HR MIN TEMP:  43; 6HR MAX TEMP:  49; 6HR PCP: TRACE;

MIDLAND        CLOUDY    40  34  78 NE7       30.05R WCI  35
6HR MIN TEMP:  40; 6HR MAX TEMP:  45;

TROY           CLOUDY    49  29  45 NE12      30.00S
SAGINAW HB     CLOUDY    41  34  75 NE17      30.03R
$$
MIZ043>046-050>051-056>058-064>065-071>073-077>080-290100-
SOUTHWEST LOWER MICHIGAN

CITY           SKY/WX    TMP DP  RH WIND       PRES   REMARKS
BATTLE CREEK   CLOUDY    46  38  73 E6        29.98R
6HR MIN TEMP:  44; 6HR MAX TEMP:  47;

BENTON HARBOR  CLOUDY    52  44  74 E7        29.95R
6HR MIN TEMP:  50; 6HR MAX TEMP:  53;

BIG RAPIDS     CLOUDY    41  30  64 E14       30.01S
6HR MIN TEMP:  39; 6HR MAX TEMP:  43; 6HR PCP:  0.06;

COLDWATER      CLOUDY    47  38  68 E7        29.96R
6HR MIN TEMP:  47; 6HR MAX TEMP:  51;

FREMONT        CLOUDY    43  36  76 E6        30.01R
HOLLAND        CLOUDY    43  39  86 E10G17    30.00R FOG
6HR MIN TEMP:  42; 6HR MAX TEMP:  45;

GRAND RAPIDS   CLOUDY    44  36  73 E8        30.00R
6HR MIN TEMP:  41; 6HR MAX TEMP:  44; 6HR PCP:  0.01;

IONIA          CLOUDY    43  36  76 NE10      29.99S
6HR MIN TEMP:  40; 6HR MAX TEMP:  43; 6HR PCP:  0.02;

KALAMAZOO      CLOUDY    47  38  71 VRB5      29.98R
6HR MIN TEMP:  46; 6HR MAX TEMP:  51;

LUDINGTON      CLOUDY    44  34  67 E8        30.03R
6HR MIN TEMP:  40; 6HR MAX TEMP:  45; 6HR PCP:  0.01;

MARSHALL       CLOUDY    46  35  66 E7        29.97R
6HR MIN TEMP:  45; 6HR MAX TEMP:  48;

MOUNT PLEASANT CLOUDY    40  35  82 NE8       30.03S WCI  34
6HR MIN TEMP:  40; 6HR MAX TEMP:  42; 6HR PCP:  0.11;

MUSKEGON       CLOUDY    43  36  76 E10       30.01R
6HR MIN TEMP:  40; 6HR MAX TEMP:  44;

$$
MIZ016>042-290100-
NORTHERN LOWER MICHIGAN

CITY           SKY/WX    TMP DP  RH WIND       PRES   REMARKS
ALPENA         CLOUDY    43  19  38 NE8       30.09F
6HR MIN TEMP:  43; 6HR MAX TEMP:  48;

BEAVER ISLAND  CLOUDY    44  25  47 E8        30.08S
6HR MIN TEMP:  43; 6HR MAX TEMP:  46;

BELLAIRE       CLOUDY    52  25  35 E6        30.03S
6HR MIN TEMP:  52; 6HR MAX TEMP:  56;

CADILLAC       CLOUDY    40  32  73 E7        30.03R
CHARLEVOIX     MOCLDY    48  28  45 E9        30.08S
GAYLORD        CLOUDY    47  26  44 NE10      30.04F
6HR MIN TEMP:  47; 6HR MAX TEMP:  52;

GRAYLING       CLOUDY    47  28  47 NE13      30.04S
HARBOR SPRINGS PTCLDY    46  20  36 NE14      30.07S
HOUGHTON LAKE  LGT RAIN  41  35  79 E5        30.04S
6HR MIN TEMP:  41; 6HR MAX TEMP:  47; 6HR PCP:  0.03;

MANISTEE       CLOUDY    45  32  61 S5        30.03S
OSCODA         CLOUDY    40  29  64 N13       30.07F WCI  33
6HR MIN TEMP:  40; 6HR MAX TEMP:  43;

PELLSTON       CLOUDY    46  17  31 E8        30.09S
6HR MIN TEMP:  46; 6HR MAX TEMP:  51;

ROGERS CITY    CLOUDY    43  20  39 E7        30.10F
TRAVERSE CITY  CLOUDY    47  34  60 NW3       30.02S
6HR MIN TEMP:  46; 6HR MAX TEMP:  54; 6HR PCP: TRACE;

$$
MIZ007>008-015-290100-
EASTERN UPPER MICHIGAN

CITY           SKY/WX    TMP DP  RH WIND       PRES   REMARKS
KINROSS          N/A     46  27  46 W5        30.09S
6HR MIN TEMP:  46; 6HR MAX TEMP:  52;

MACKINAC ISLAN MOCLDY    43  19  39 CALM      30.08S
6HR MIN TEMP:  38; 6HR MAX TEMP:  46;

NEWBERRY       CLEAR     47  30  51 SW6       30.08S
6HR MIN TEMP:  47; 6HR MAX TEMP:  53;

S. S. MARIE    MOCLDY    48  29  47 SW6       30.08R
6HR MIN TEMP:  48; 6HR MAX TEMP:  54;

MUNISING         N/A     40  33  76 N8        30.10S WCI  34
6HR MIN TEMP:  40; 6HR MAX TEMP:  42;

$$
MIZ004>006-011>014-085-290100-
CENTRAL UPPER MICHIGAN

CITY           SKY/WX    TMP DP  RH WIND       PRES   REMARKS
MANISTIQUE     PTCLDY    45  23  41 E9        30.08S
6HR MIN TEMP:  45; 6HR MAX TEMP:  49;

ESCANABA       CLOUDY    48  25  40 E6        30.07S
6HR MIN TEMP:  46; 6HR MAX TEMP:  52;

MENOMINEE      CLOUDY    43  28  56 E6        30.06R
6HR MIN TEMP:  43; 6HR MAX TEMP:  45;

SAWYER-GWINN   CLEAR     37  18  44 NE9       30.08R WCI  31
$$
MIZ001>003-009>011-084-290100-
WESTERN UPPER MICHIGAN

CITY           SKY/WX    TMP DP  RH WIND       PRES   REMARKS
IRON MOUNTAIN  CLOUDY    49  23  36 SE5       30.04R
6HR MIN TEMP:  49; 6HR MAX TEMP:  55;

HOUGHTON       PTCLDY    41  26  55 E12       30.10F
6HR MIN TEMP:  41; 6HR MAX TEMP:  46;

COPPER HARBOR    N/A     38  31  76 CALM      30.13F
6HR MIN TEMP:  38; 6HR MAX TEMP:  43;

IRONWOOD       SUNNY     43  28  56 N7        30.05S
6HR MIN TEMP:  43; 6HR MAX TEMP:  50;

$$

ABBREVIATIONS USED IN REMARKS
   TC - TEMPERATURE IN CELSIUS
  WCI - WIND CHILL INDEX
   HX - HEAT INDEX
  VSB - VISIBILITY





USA.gov is the U.S. government's official web portal to all federal, state and local government web resources and services.